Back to catalog

QIANFAN-57

AliveCommunicationsPO
NORAD 62787·PAYLOAD·🇨🇳 China

Launched Jan 23, 2025 from Taiyuan Satellite Launch Center

Loading…

Next Passes (next 24 hours)

TLE

FreshSource: Space-Track

Epoch: Sep 14, 2026, 22:21 UTC

1 62787U 25016C   26257.93194344  .00000040  00000-0  43451-4 0  9998
2 62787  88.9674  74.5402 0002512  84.7825 275.3613 13.51027529 84497

Track QIANFAN-57 in real time with AllMySat

Download on the App Store